CYCD

Nanaimo  Airport

Nanaimo, British Columbia, Canada
Issued Wind Visibility Ceiling Temperature Dew Point Humidity Barometer
Nov-20
05:00 UTC
040°
4 KTS
6 miles Overcast
500' AGL
C
46° F
C
46° F
100% 29.52" Hg
1000 hPa
IFR
Nov-20
04:00 UTC
130°
5 KTS
6 miles Broken
600' AGL
C
46° F
C
46° F
100% 29.5" Hg
999.3 hPa
IFR
Nov-20
03:00 UTC
Varies @2 KTS 6 miles Overcast
700' AGL
C
46° F
C
46° F
100% 29.51" Hg
999.6 hPa
IFR
Nov-20
02:00 UTC
Varies @2 KTS 5 miles Broken
600' AGL
C
46° F
C
46° F
100% 29.52" Hg
999.8 hPa
IFR
Nov-20
01:39 UTC
Varies @2 KTS 4 miles Broken
600' AGL
C
46° F
C
46° F
100% 29.51" Hg
999.7 hPa
IFR
Nov-20
01:24 UTC
100°
2 KTS
4 miles Broken
700' AGL
C
46° F
C
46° F
100% 29.52" Hg
999.8 hPa
IFR
Nov-20
01:00 UTC
4 miles Broken
900' AGL
C
46° F
C
46° F
100% 29.51" Hg
999.6 hPa
IFR
Nov-20
00:25 UTC
160°
5 KTS
5 miles Broken
1,000' AGL
C
46° F
C
46° F
100% 29.51" Hg
999.5 hPa
MVFR
Nov-20
00:00 UTC
140°
5 KTS
8 miles Broken
1,000' AGL
C
46° F
C
46° F
100% 29.52" Hg
999.8 hPa
MVFR
Nov-19
23:00 UTC
130°
4 KTS
8 miles Broken
2,200' AGL
C
48° F
C
46° F
94% 29.52" Hg
1000 hPa
MVFR
Nov-19
22:25 UTC
180°
3 KTS
4 miles Broken
1,000' AGL
C
48° F
C
46° F
94% 29.53" Hg
1000.3 hPa
MVFR
Nov-19
22:00 UTC
4 miles Broken
900' AGL
C
48° F
C
46° F
94% 29.52" Hg
1000 hPa
IFR
Nov-19
21:00 UTC
120°
9 KTS
4 miles Broken
900' AGL
C
46° F
C
46° F
100% 29.56" Hg
1001.1 hPa
IFR
Nov-19
20:00 UTC
Varies @4 KTS 4 miles Overcast
2,400' AGL
C
46° F
C
45° F
93% 29.59" Hg
1002.2 hPa
MVFR
Nov-19
19:00 UTC
100°
13 KTS
Gust 20 KTS
4 miles Broken
2,500' AGL
C
45° F
C
45° F
100% 29.61" Hg
1003 hPa
MVFR
Nov-19
18:00 UTC
130°
14 KTS
Gust 25 KTS
4 miles Broken
4,500' AGL
C
46° F
C
45° F
93% 29.64" Hg
1004 hPa
MVFR
Nov-19
17:00 UTC
120°
16 KTS
Gust 24 KTS
4 miles Broken
4,500' AGL
C
46° F
C
45° F
93% 29.68" Hg
1005.4 hPa
MVFR
Nov-19
16:00 UTC
130°
16 KTS
Gust 24 KTS
4 miles Broken
3,300' AGL
C
45° F
C
45° F
100% 29.71" Hg
1006.4 hPa
MVFR
Nov-19
15:33 UTC
130°
15 KTS
Gust 20 KTS
4 miles Broken
3,500' AGL
C
45° F
C
45° F
100% 29.74" Hg
1007.2 hPa
MVFR
Nov-19
15:00 UTC
130°
14 KTS
Gust 22 KTS
10 miles Overcast
4,600' AGL
C
45° F
C
43° F
93% 29.75" Hg
1007.8 hPa
VFR
Nov-19
14:00 UTC
130°
14 KTS
Gust 20 KTS
10 miles Overcast
4,000' AGL
C
45° F
C
45° F
100% 29.8" Hg
1009.3 hPa
VFR